Hourly Weather Roundup
Issued by NWS Central Illinois

Home | Current Version | Previous Version | Text Only | Print | Product List | Glossary Off
Versions: 1 2 3 4 5 6 7 8 9 10 11 12 13 14 15 16 17 18 19 20 21 22 23 24 25 26 27 28 29 30 31 32 33 34 35 36 37 38 39 40 41 42 43 44 45 46 47 48 49 50

000
NZUS43 KILX 290910
HWRILX

AREA WEATHER ROUNDUP
NATIONAL WEATHER SERVICE, LINCOLN IL
400 AM CDT FRI JUL 29 2016


CITY           SKY/WX    TMP DP  RH WIND       PRES   REMARKS
BLOOMINGTON    CLEAR     69  67  93 SW3       29.91F
CHAMPAIGN      FOG       67  66  97 W3        29.90S VSB 1/2
DANVILLE       CLOUDY    66  66  99 CALM      29.88S FOG
DECATUR        CLEAR     72  68  87 NW6       29.90F
EFFINGHAM      CLEAR     68  68 100 CALM      29.91F FOG
FLORA          FOG       70  69  98 CALM      29.90F VSB 1/2
GALESBURG      PTCLDY    65  65  97 W3        29.92S
JACKSONVILLE   CLEAR     66  64  96 W7        29.92S
LACON          CLOUDY    68  67  97 CALM      29.89F FOG
LAWRENCEVILLE  PTCLDY    69  68  96 CALM      29.90F FOG
LITCHFIELD     NOT AVBL
$$


CITY           SKY/WX    TMP DP  RH WIND       PRES   REMARKS
LINCOLN        CLEAR     68  68 100 CALM      29.90F
MACOMB         PTCLDY    64  64  98 NW5       29.94S
MATTOON        CLEAR     67  65  93 CALM      29.90S
MT CARMEL AP   PTCLDY    67  66  96 CALM      29.90S
OLNEY-NOBLE AP CLEAR     68  68 100 CALM      29.91S FOG
PARIS          CLEAR     67  67 100 CALM      29.90F
PEORIA         PTCLDY    69  67  93 NW3       29.90F
PONTIAC        FOG       68  68 100 NE3       29.91S VSB 1/4
RANTOUL        NOT AVBL
ROBINSON       CLEAR     67  66  99 CALM      29.90F
SPRINGFIELD    CLEAR     69  67  93 CALM      29.91F
TAYLORVILLE    PTCLDY    68  68  99 MISG      29.91S
$$

...REGIONAL REPORTS...


CITY           SKY/WX    TMP DP  RH WIND       PRES   REMARKS
CHICAGO O`HARE CLOUDY    70  68  93 N6        29.91S
KANKAKEE       FOG       69  68  97 CALM      29.91R VSB 1/4
MOLINE         CLOUDY    70  67  90 NW6       29.91S
MOUNT STERLING CLEAR     66  64  96 CALM      29.92S
MOUNT VERNON   CLEAR     70  64  83 MISG      29.90S
PITTSFIELD     CLEAR     67  66  94 CALM      29.93F
QUINCY         PTCLDY    67  67 100 NW5       29.92F
ROCKFORD       CLOUDY    69  64  84 N9        29.94F
$$


CITY           SKY/WX    TMP DP  RH WIND       PRES   REMARKS
BURLINGTON     PTCLDY    66  66 100 N6        29.92F
CEDAR RAPIDS   CLOUDY    66  66 100 NW8       29.94S FOG
DES MOINES     CLOUDY    68  63  84 N9        29.97F
KIRKSVILLE     MOCLDY    66  63  90 N5        29.95F
OTTUMWA        MOCLDY    63  62  97 N8        29.95F
ST LOUIS       MOCLDY    76  68  76 NW6       29.92S
$$


CITY           SKY/WX    TMP DP  RH WIND       PRES   REMARKS
TERRE HAUTE    CLEAR     70  67  90 CALM      29.90R FOG
EVANSVILLE     CLOUDY    71  70  96 CALM      29.91R
INDIANAPOLIS   PTCLDY    70  67  90 W3        29.91S
LAFAYETTE      FOG       68  68 100 CALM      29.89S VSB 1/4
MADISON        CLOUDY    65  62  90 NE6       29.96F
MILWAUKEE      CLOUDY    68  65  90 N13       29.94F
$$






USA.gov is the U.S. government's official web portal to all federal, state and local government web resources and services.